Flight Track Log - Related Links

Times and Time Zones

All times are in EDT time to prevent confusion due to time zone crossing. See the N12502 flight status page for this flight to view local times or setup timezone preferences in your user account.

Time Position Orientation Groundspeed Altitude Reporting Facility
EDT Latitude Longitude Course Direction KTS MPH feet Rate Location/Type
Sun 11:55:21 AM 40.1939 -88.6317 304° West 94 108 4,500  Level Chicago Center
Sun 11:56:23 AM 40.2089 -88.6614 303° West 96 110 4,500  Level Chicago Center
Sun 11:57:25 AM 40.2261 -88.6958 303° West 95 109 4,500  Level Chicago Center
Sun 11:58:27 AM 40.2419 -88.7222 308° West 94 108 4,500 -48 Level Chicago Center
Sun 11:59:00 AM 40.1175 -88.7781 303° West  Level Estimated
Sun 11:59:29 AM 40.2558 -88.7528 301° West 95 109 4,400  Level Chicago Center
Sun 12:00:00 PM 40.1362 -88.8147 304° West  Level FlightAware Approximate
Sun 12:00:31 PM 40.2722 -88.7808 307° West 96 110 4,400  Level Chicago Center
Sun 12:01:33 PM 40.2850 -88.8097 300° West 95 109 4,400  Level Chicago Center
Sun 12:02:35 PM 40.2947 -88.8428 291° West 96 110 4,400 48 Level Chicago Center
Sun 12:03:37 PM 40.3075 -88.8806 294° West 95 109 4,500 48 Climbing Chicago Center
Sun 12:04:39 PM 40.3208 -88.9103 300° West 94 108 4,500  Level Chicago Center
Sun 12:05:41 PM 40.3269 -88.9439 283° West 95 109 4,500  Level Chicago Center
Sun 12:06:44 PM 40.3344 -88.9783 286° West 97 112 4,500  Level Chicago Center
Sun 12:07:46 PM 40.3444 -89.0117 291° West 97 112 4,500 -48 Level Chicago Center
Sun 12:08:48 PM 40.3528 -89.0467 287° West 99 114 4,400 -48 Descending Chicago Center
Sun 12:09:50 PM 40.3631 -89.0858 289° West 96 110 4,400  Level Chicago Center
Sun 12:10:52 PM 40.3697 -89.1186 285° West 94 108 4,400  Level Chicago Center
Sun 12:11:54 PM 40.3792 -89.1494 292° West 92 106 4,400  Level Chicago Center
Sun 12:12:56 PM 40.3883 -89.1819 290° West 94 108 4,400  Level Chicago Center
Sun 12:13:58 PM 40.3992 -89.2122 295° West 93 107 4,400 -48 Level Chicago Center
Sun 12:15:00 PM 40.4125 -89.2411 301° West 92 106 4,300 -48 Descending Chicago Center
Sun 12:16:02 PM 40.4281 -89.2744 302° West 91 105 4,300 48 Level Chicago Center
Sun 12:17:04 PM 40.4433 -89.3008 307° West 90 104 4,400 97 Climbing Chicago Center
Sun 12:18:06 PM 40.4572 -89.3278 304° West 89 102 4,500 97 Climbing Chicago Center
Sun 12:19:08 PM 40.4722 -89.3544 306° West 90 104 4,600 48 Climbing Chicago Center
Sun 12:20:11 PM 40.4861 -89.3817 304° West 90 104 4,600  Level Chicago Center
Sun 12:21:13 PM 40.4992 -89.4119 300° West 93 107 4,600  Level Chicago Center
Sun 12:22:15 PM 40.5158 -89.4503 300° West 99 114 4,600  Level Chicago Center
Sun 12:23:17 PM 40.5314 -89.4792 305° West 98 113 4,600  Level Chicago Center
Sun 12:24:19 PM 40.5478 -89.5075 307° West 97 112 4,600 -48 Level Chicago Center
Sun 12:25:21 PM 40.5633 -89.5367 305° West 97 112 4,500 -48 Descending Chicago Center
Sun 12:26:23 PM 40.5775 -89.5669 302° West 98 113 4,500  Level Chicago Center
Sun 12:27:25 PM 40.5928 -89.5961 305° West 96 110 4,500  Level Chicago Center
Sun 12:28:27 PM 40.6094 -89.6228 309° West 96 110 4,500  Level Chicago Center
Sun 12:29:30 PM 40.6283 -89.6561 307° West 95 109 4,500  Level Chicago Center
Sun 12:30:31 PM 40.6417 -89.6856 301° West 93 107 4,500  Level Chicago Center
Sun 12:31:33 PM 40.6539 -89.7167 297° West 94 108 4,500  Level Chicago Center
Sun 12:32:36 PM 40.6617 -89.7533 286° West 99 114 4,500 48 Level Chicago Center
Sun 12:33:38 PM 40.6708 -89.7869 290° West 100 115 4,600 48 Climbing Chicago Center
Sun 12:34:40 PM 40.6844 -89.8167 301° West 97 112 4,600  Level Chicago Center
Sun 12:35:42 PM 40.6986 -89.8489 300° West 96 110 4,600  Level Chicago Center
Sun 12:36:44 PM 40.7122 -89.8783 301° West 95 109 4,600  Level Chicago Center
Sun 12:37:46 PM 40.7242 -89.9078 298° West 93 107 4,600  Level Chicago Center
Sun 12:38:48 PM 40.7394 -89.9447 299° West 94 108 4,600  Level Chicago Center
Sun 12:39:50 PM 40.7517 -89.9747 298° West 94 108 4,600 -97 Level Chicago Center
Sun 12:40:52 PM 40.7656 -90.0025 303° West 93 107 4,400 -242 Descending Chicago Center
Sun 12:41:54 PM 40.7811 -90.0319 305° West 94 108 4,100 -290 Descending Chicago Center
Sun 12:42:56 PM 40.7964 -90.0611 305° West 96 110 3,800 -145 Descending Chicago Center
Sun 12:43:58 PM 40.8158 -90.0942 308° West 97 112 3,800  Level Chicago Center
Sun 12:45:00 PM 40.8239 -90.1308 286° West  Level FlightAware Approximate
Sun 12:52:00 PM 40.9013 -90.3686 311° West  Level FlightAware Approximate
Sun 12:53:00 PM 40.9198 -90.3963 311° West  Level FlightAware Approximate
Sun 12:54:00 PM 40.9333 -90.4167 311° West  Level FlightAware Approximate

Login

Don't have an account? Register now (free) for customized features, flight alerts, and more!